This is the latest recevied weather packets stored in our database for station/object N9XRG. If no packets are shown the sender has not sent any weather packets the latest 10 day(s).
| Time | Temp. | Humidity | Pressure | Rain* | Wind** | Luminosity | Snow |
|---|---|---|---|---|---|---|---|
| 1778121807 | 7.78° C | 75% | 1014.1 hPa | 0 mm | - | 0 W/m² | - |
| 1778121503 | 7.78° C | 74% | 1014.2 hPa | 0 mm | - | 0 W/m² | - |
| 1778121199 | 8.33° C | 71% | 1014.1 hPa | 0 mm | - | 0 W/m² | - |
| 1778120897 | 8.33° C | 69% | 1014.3 hPa | 0 mm | - | 0 W/m² | - |
| 1778120593 | 8.33° C | 70% | 1014.2 hPa | 0 mm | - | 0 W/m² | - |
| 1778120289 | 8.89° C | 67% | 1014.1 hPa | 0 mm | - | 0 W/m² | - |
| 1778119985 | 8.89° C | 68% | 1014.2 hPa | 0 mm | - | 0 W/m² | - |
| 1778119683 | 9.44° C | 66% | 1014 hPa | 0 mm | - | 0 W/m² | - |
| 1778119379 | 9.44° C | 66% | 1014.2 hPa | 0 mm | - | 0 W/m² | - |
| 1778119077 | 9.44° C | 74% | 1014.2 hPa | 0 mm | - | 0 W/m² | - |
| 1778118774 | 9.44° C | 70% | 1014.1 hPa | 0 mm | - | 0 W/m² | - |
| 1778118471 | 9.44° C | 69% | 1014.2 hPa | 0 mm | - | 0 W/m² | - |
| 1778118167 | 9.44° C | 69% | 1014.1 hPa | 0 mm | - | 0 W/m² | - |
| 1778117864 | 9.44° C | 70% | 1013.9 hPa | 0 mm | - | 0 W/m² | - |
| 1778117561 | 9.44° C | 69% | 1013.9 hPa | 0 mm | - | 0 W/m² | - |
| 1778117259 | 10° C | 69% | 1013.9 hPa | 0 mm | - | 0 W/m² | - |
| 1778116954 | 10° C | 69% | 1013.6 hPa | 0 mm | - | 0 W/m² | - |
| 1778116652 | 10° C | 68% | 1013.7 hPa | 0 mm | - | 0 W/m² | - |
| 1778116348 | 10° C | 63% | 1013.8 hPa | 0 mm | - | 0 W/m² | - |
| 1778116048 | 10° C | 61% | 1013.8 hPa | 0 mm | - | 0 W/m² | - |
| 1778115744 | 10° C | 60% | 1013.6 hPa | 0 mm | - | 0 W/m² | - |
| 1778115442 | 10° C | 60% | 1013.6 hPa | 0 mm | - | 0 W/m² | - |
| 1778115138 | 10.56° C | 62% | 1013.3 hPa | 0 mm | - | 1 W/m² | - |
| 1778114834 | 10.56° C | 58% | 1013.3 hPa | 0 mm | - | 2 W/m² | - |
| 1778114533 | 10.56° C | 58% | 1013.5 hPa | 0 mm | - | 3 W/m² | - |
* Rain latest hour (hover to see other rain measurements)
** Current wind speed in m/s (hover to see current wind gust speed)